Find Starlink 11180

NORAD ID: 60185 Int'l Des: 2024-124 Owner: SPXS Country: US Constellation: starlink operational
LEOCIRCULAR

Live-Position

3D-Globus wird geladen...

Über Starlink 11180

Beschreibung wird geladen...

Nächste Überflüge

Passes for default location (London). Set your location on the main map for personalized predictions.

Höhenverlauf

Loading altitude history...

Zweizeiliger Elementsatz

1 60185U 24124C 26126.67279108 -.00002680 00000-0 -17286-4 0 9996
2 60185 53.1582 235.2210 0000781 116.9523 243.1574 15.69689721105640
Epoch: 6. Mai 2026 • Age: 27 hours

Aktueller Status

Höhe 371.3 km
Geschwindigkeit 7.69 km/s
Subsatellitenpunkt -35.68°S, 69.88°W
Startdatum 3. Juli 2024
Alter 1.8 years
Typ internet

Technische Details

Klassifizierung Payload
Masse 960.00 kg
Trockenmasse 910.00 kg
Gesamtmasse 960.00 kg
Länge 0.30 m
Durchmesser 4.10 m
Spannweite 29.00 m
Form Box + pan
Hersteller SPXS
Bus-Typ Starlink V2MD
Phasenstatus In Orbit
Besitzer/Staat SPXS/US

Most Searched